| time (UTC) | temp C | wind direction | speed KPH | gust KPH | rain 1hr cm | rain 24hr cm | rain mn cm | humidity % | barometer mb |
| 20260902202754 | 15 | 335 | 3.2 | 3.2 | 0.00 | 0.00 | 0.00 | 100 | 786.7 |
| 20260902201552 | 15 | 335 | 3.2 | 3.2 | 0.00 | 0.00 | 0.00 | 100 | 786.7 |
| 20260902200340 | 16 | 56 | 3.2 | 3.2 | 0.00 | 0.00 | 0.00 | 100 | 786.7 |
| 20260902195130 | 16 | 56 | 3.2 | 3.2 | 0.00 | 0.00 | 0.00 | 100 | 786.7 |
| 20260902193921 | 16 | 56 | 3.2 | 3.2 | 0.00 | 0.00 | 0.00 | 100 | 786.7 |
| 20260902192711 | 16 | 138 | 3.2 | 3.2 | 0.00 | 0.00 | 0.00 | 100 | 786.7 |
| 20260902190248 | 16 | 74 | 3.2 | 3.2 | 0.00 | 0.00 | 0.00 | 100 | 786.7 |
| 20260902185036 | 16 | 249 | 3.2 | 3.2 | 0.00 | 0.00 | 0.00 | 100 | 786.7 |
| 20260902183826 | 16 | 249 | 3.2 | 3.2 | 0.00 | 0.00 | 0.00 | 100 | 786.7 |
| 20260902182613 | 17 | 249 | 3.2 | 3.2 | 0.00 | 0.00 | 0.00 | 100 | 786.7 |
| 20260902181403 | 17 | 249 | 3.2 | 3.2 | 0.00 | 0.00 | 0.00 | 100 | 786.7 |
| 20260902180153 | 17 | 249 | 3.2 | 3.2 | 0.00 | 0.00 | 0.00 | 100 | 786.7 |
| 20260902174942 | 17 | 249 | 3.2 | 3.2 | 0.00 | 0.00 | 0.00 | 100 | 786.7 |
| 20260902172524 | 18 | 249 | 3.2 | 3.2 | 0.00 | 0.00 | 0.00 | 100 | 786.7 |
| 20260902171313 | 18 | 249 | 3.2 | 3.2 | 0.00 | 0.00 | 0.00 | 100 | 786.7 |
| 20260902170103 | 18 | 296 | 3.2 | 3.2 | 0.00 | 0.00 | 0.00 | 100 | 786.7 |
| 20260902163338 | 20 | 56 | 3.2 | 3.2 | 0.00 | 0.00 | 0.00 | 100 | 786.7 |
| 20260902162827 | 20 | 56 | 3.2 | 3.2 | 0.00 | 0.00 | 0.00 | 100 | 786.7 |
| 20260902162316 | 20 | 56 | 3.2 | 3.2 | 0.00 | 0.00 | 0.00 | 100 | 786.7 |
| 20260902161806 | 21 | 45 | 3.2 | 3.2 | 0.00 | 0.00 | 0.00 | 100 | 786.7 |
| 20260902161306 | 21 | 27 | 3.2 | 3.2 | 0.00 | 0.00 | 0.00 | 100 | 786.7 |
| 20260902160755 | 21 | 27 | 3.2 | 3.2 | 0.00 | 0.00 | 0.00 | 100 | 786.7 |
| 20260902160245 | 21 | 29 | 3.2 | 3.2 | 0.00 | 0.00 | 0.00 | 100 | 786.7 |
| 20260902155734 | 21 | 39 | 3.2 | 3.2 | 0.00 | 0.00 | 0.00 | 100 | 786.7 |
| 20260902155223 | 21 | 335 | 3.2 | 3.2 | 0.00 | 0.00 | 0.00 | 100 | 786.7 |
| 20260902154723 | 21 | 333 | 3.2 | 3.2 | 0.00 | 0.00 | 0.00 | 100 | 786.7 |
| 20260902153701 | 21 | 275 | 3.2 | 3.2 | 0.00 | 0.00 | 0.00 | 100 | 786.7 |
| 20260902153150 | 22 | 287 | 4.8 | 6.4 | 0.00 | 0.00 | 0.00 | 100 | 786.7 |
| 20260902152639 | 22 | 70 | 3.2 | 3.2 | 0.00 | 0.00 | 0.00 | 100 | 786.7 |
| 20260902152128 | 22 | 283 | 3.2 | 3.2 | 0.00 | 0.00 | 0.00 | 100 | 786.7 |
| 20260902151629 | 22 | 289 | 3.2 | 3.2 | 0.00 | 0.00 | 0.00 | 100 | 786.7 |
| 20260902151116 | 22 | 289 | 3.2 | 4.8 | 0.00 | 0.00 | 0.00 | 100 | |
| 20260902150605 | 22 | 298 | 3.2 | 3.2 | 0.00 | 0.00 | 0.00 | 100 | |
| 20260902150405 | 22 | 356 | 3.2 | 3.2 | 0.00 | 0.00 | 0.00 | 100 | 798.3 |
| 20260902145855 | 22 | 288 | 3.2 | 6.4 | 0.00 | 0.00 | 0.00 | 100 | 798.3 |
| 20260902144832 | 22 | 313 | 4.8 | 6.4 | 0.00 | 0.00 | 0.00 | 100 | 798.3 |
| 20260902144320 | 22 | 298 | 6.4 | 6.4 | 0.00 | 0.00 | 0.00 | 100 | 798.3 |
| 20260902143308 | 22 | 300 | 3.2 | 3.2 | 0.00 | 0.00 | 0.00 | 100 | 798.3 |
| 20260902142757 | 22 | 312 | 3.2 | 3.2 | 0.00 | 0.00 | 0.00 | 100 | 798.3 |
| 20260902142245 | 21 | 339 | 3.2 | 4.8 | 0.00 | 0.00 | 0.00 | 100 | 798.3 |
| 20260902141747 | 21 | 299 | 4.8 | 8.0 | 0.00 | 0.00 | 0.00 | 100 | 798.3 |
| 20260902141233 | 21 | 315 | 3.2 | 6.4 | 0.00 | 0.00 | 0.00 | 100 | 798.3 |
| 20260902140721 | 21 | 306 | 4.8 | 6.4 | 0.00 | 0.00 | 0.00 | 100 | 798.3 |
| 20260902140210 | 21 | 241 | 4.8 | 6.4 | 0.00 | 0.00 | 0.00 | 100 | 798.3 |
| 20260902135659 | 21 | 332 | 4.8 | 6.4 | 0.00 | 0.00 | 0.00 | 100 | 798.3 |
| 20260902135158 | 21 | 317 | 4.8 | 8.0 | 0.00 | 0.00 | 0.00 | 100 | 798.3 |
| 20260902134647 | 21 | 292 | 4.8 | 6.4 | 0.00 | 0.00 | 0.00 | 100 | 798.3 |
| 20260902134136 | 21 | 309 | 3.2 | 6.4 | 0.00 | 0.00 | 0.00 | 100 | 798.3 |
| 20260902133624 | 21 | 267 | 4.8 | 6.4 | 0.00 | 0.00 | 0.00 | 100 | 798.3 |
| 20260902133124 | 21 | 286 | 6.4 | 9.7 | 0.00 | 0.00 | 0.00 | 100 | 798.3 |
| 20260902132612 | 21 | 267 | 6.4 | 12.9 | 0.00 | 0.00 | 0.00 | 100 | 798.3 |
| 20260902131549 | 21 | 299 | 11.3 | 16.1 | 0.00 | 0.00 | 0.00 | 100 | 798.3 |
| 20260902131048 | 21 | 304 | 6.4 | 9.7 | 0.00 | 0.00 | 0.00 | 100 | 798.3 |
| 20260902130537 | 21 | 247 | 3.2 | 6.4 | 0.00 | 0.00 | 0.00 | 100 | 798.3 |
| 20260902130026 | 21 | 305 | 4.8 | 8.0 | 0.00 | 0.00 | 0.00 | 100 | 798.3 |
| 20260902125513 | 21 | 323 | 4.8 | 8.0 | 0.00 | 0.00 | 0.00 | 100 | 798.3 |
| 20260902125012 | 21 | 335 | 3.2 | 3.2 | 0.00 | 0.00 | 0.00 | 100 | 798.3 |
| 20260902123950 | 20 | 286 | 3.2 | 3.2 | 0.00 | 0.00 | 0.00 | 100 | 798.3 |
| 20260902123439 | 20 | 282 | 3.2 | 3.2 | 0.00 | 0.00 | 0.00 | 100 | 798.3 |
| 20260902122927 | 20 | 255 | 3.2 | 3.2 | 0.00 | 0.00 | 0.00 | 100 | 798.3 |
| 20260902122429 | 20 | 21 | 3.2 | 3.2 | 0.00 | 0.00 | 0.00 | 100 | 798.3 |
| 20260902121915 | 20 | 18 | 3.2 | 3.2 | 0.00 | 0.00 | 0.00 | 100 | 798.3 |
| 20260902121404 | 20 | 283 | 3.2 | 3.2 | 0.00 | 0.00 | 0.00 | 100 | 798.3 |
| 20260902115841 | 21 | 254 | 3.2 | 4.8 | 0.00 | 0.00 | 0.00 | 100 | 798.3 |
| 20260902115330 | 21 | 190 | 3.2 | 3.2 | 0.00 | 0.00 | 0.00 | 100 | 798.3 |
| 20260902114819 | 21 | 305 | 3.2 | 3.2 | 0.00 | 0.00 | 0.00 | 100 | 798.3 |
| 20260902114308 | 21 | 232 | 3.2 | 3.2 | 0.00 | 0.00 | 0.00 | 100 | 798.3 |
| 20260902113807 | 21 | 194 | 3.2 | 3.2 | 0.00 | 0.00 | 0.00 | 100 | 798.3 |
| 20260902113256 | 20 | 152 | 3.2 | 3.2 | 0.00 | 0.00 | 0.00 | 100 | 798.3 |
| 20260902112748 | 20 | 110 | 3.2 | 3.2 | 0.00 | 0.00 | 0.00 | 100 | 798.3 |
| 20260902112234 | 20 | 94 | 3.2 | 3.2 | 0.00 | 0.00 | 0.00 | 100 | 798.3 |
| 20260902111733 | 20 | 167 | 3.2 | 3.2 | 0.00 | 0.00 | 0.00 | 100 | 798.3 |
| 20260902111223 | 20 | 20 | 3.2 | 3.2 | 0.00 | 0.00 | 0.00 | 100 | 798.3 |
| 20260902110712 | 20 | 16 | 3.2 | 3.2 | 0.00 | 0.00 | 0.00 | 100 | 798.3 |
| 20260902110201 | 20 | 49 | 3.2 | 3.2 | 0.00 | 0.00 | 0.00 | 100 | 798.3 |
| 20260902105650 | 19 | 97 | 3.2 | 3.2 | 0.00 | 0.00 | 0.00 | 100 | 798.3 |
| 20260902105150 | 18 | 92 | 3.2 | 3.2 | 0.00 | 0.00 | 0.00 | 100 | 798.3 |
| 20260902104639 | 18 | 78 | 3.2 | 3.2 | 0.00 | 0.00 | 0.00 | 100 | 798.3 |
| 20260902104128 | 18 | 95 | 3.2 | 3.2 | 0.00 | 0.00 | 0.00 | 100 | 798.3 |
| 20260902103617 | 18 | 55 | 3.2 | 3.2 | 0.00 | 0.00 | 0.00 | 100 | 798.3 |
| 20260902103119 | 18 | 40 | 3.2 | 3.2 | 0.00 | 0.00 | 0.00 | 100 | 798.3 |
| 20260902102604 | 19 | 9 | 3.2 | 3.2 | 0.00 | 0.00 | 0.00 | 100 | 798.3 |
| 20260902101548 | 18 | 305 | 6.4 | 6.4 | 0.00 | 0.00 | 0.00 | 100 | 798.3 |
| 20260902101037 | 18 | 302 | 6.4 | 8.0 | 0.00 | 0.00 | 0.00 | 100 | 798.3 |
| 20260902100526 | 19 | 297 | 8.0 | 9.7 | 0.00 | 0.00 | 0.00 | 100 | 798.3 |
| 20260902100015 | 20 | 313 | 6.4 | 9.7 | 0.00 | 0.00 | 0.00 | 100 | 798.3 |
| 20260902095514 | 20 | 253 | 6.4 | 9.7 | 0.00 | 0.00 | 0.00 | 100 | 798.3 |
| 20260902095002 | 20 | 276 | 3.2 | 4.8 | 0.00 | 0.00 | 0.00 | 100 | 799.0 |
| 20260902094451 | 20 | 293 | 3.2 | 4.8 | 0.00 | 0.00 | 0.00 | 100 | 799.0 |
| 20260902093431 | 20 | 236 | 3.2 | 3.2 | 0.00 | 0.00 | 0.00 | 100 | 799.0 |
| 20260902092928 | 20 | 176 | 3.2 | 3.2 | 0.00 | 0.00 | 0.00 | 100 | 799.0 |
| 20260902091906 | 18 | 179 | 3.2 | 4.8 | 0.00 | 0.00 | 0.00 | 100 | 799.0 |
| 20260902091355 | 18 | 214 | 3.2 | 3.2 | 0.00 | 0.00 | 0.00 | 100 | 799.0 |
| 20260902090855 | 18 | 193 | 3.2 | 3.2 | 0.00 | 0.00 | 0.00 | 100 | 799.0 |
| 20260902090343 | 18 | 233 | 6.4 | 6.4 | 0.00 | 0.00 | 0.00 | 100 | 799.0 |
| 20260902085322 | 17 | 157 | 6.4 | 6.4 | 0.00 | 0.00 | 0.00 | 100 | 799.0 |
| 20260902084811 | 17 | 53 | 6.4 | 6.4 | 0.00 | 0.00 | 0.00 | 100 | 799.0 |
| 20260902084310 | 17 | 255 | 6.4 | 6.4 | 0.00 | 0.00 | 0.00 | 100 | 799.0 |
| 20260902083801 | 17 | 250 | 6.4 | 6.4 | 0.00 | 0.00 | 0.00 | 100 | 799.0 |
| 20260902083246 | 17 | 191 | 6.4 | 6.4 | 0.00 | 0.00 | 0.00 | 100 | 799.0 |
| 20260902082735 | 16 | 244 | 6.4 | 6.4 | 0.00 | 0.00 | 0.00 | 100 | 799.0 |
| 20260902082234 | 16 | 169 | 6.4 | 6.4 | 0.00 | 0.00 | 0.00 | 100 | 799.0 |
| 20260902081724 | 16 | 17 | 6.4 | 6.4 | 0.00 | 0.00 | 0.00 | 100 | 799.0 |
| 20260902080151 | 16 | 115 | 3.2 | 3.2 | 0.00 | 0.00 | 0.00 | 100 | 799.0 |
| 20260902075651 | 16 | 115 | 3.2 | 3.2 | 0.00 | 0.00 | 0.00 | 100 | 799.0 |
| 20260902075140 | 16 | 111 | 3.2 | 3.2 | 0.00 | 0.00 | 0.00 | 100 | 799.0 |
| 20260902074629 | 16 | 171 | 3.2 | 3.2 | 0.00 | 0.00 | 0.00 | 100 | 799.0 |
| 20260902074120 | 16 | 243 | 3.2 | 3.2 | 0.00 | 0.00 | 0.00 | 100 | 799.0 |
| 20260902073615 | 16 | 272 | 3.2 | 3.2 | 0.00 | 0.00 | 0.00 | 100 | 799.0 |
| 20260902073103 | 16 | 242 | 3.2 | 3.2 | 0.00 | 0.00 | 0.00 | 100 | 799.0 |
| 20260902072552 | 16 | 267 | 3.2 | 3.2 | 0.00 | 0.00 | 0.00 | 100 | 799.0 |
| 20260902072041 | 15 | 249 | 3.2 | 3.2 | 0.00 | 0.00 | 0.00 | 100 | 799.0 |
| 20260902071540 | 15 | 140 | 3.2 | 3.2 | 0.00 | 0.00 | 0.00 | 100 | 799.0 |
| 20260902071029 | 15 | 147 | 3.2 | 3.2 | 0.00 | 0.00 | 0.00 | 100 | 799.0 |
| 20260902070518 | 14 | 68 | 3.2 | 3.2 | 0.00 | 0.00 | 0.00 | 100 | 799.0 |
| 20260902070008 | 14 | 65 | 3.2 | 3.2 | 0.00 | 0.00 | 0.00 | 100 | 799.0 |
| 20260902065457 | 14 | 8 | 3.2 | 3.2 | 0.00 | 0.00 | 0.00 | 100 | 799.0 |
| 20260902064956 | 13 | 16 | 3.2 | 3.2 | 0.00 | 0.00 | 0.00 | 100 | 799.0 |
| 20260902064447 | 13 | 16 | 3.2 | 3.2 | 0.00 | 0.00 | 0.00 | 100 | 799.0 |
| 20260902063423 | 13 | 45 | 3.2 | 3.2 | 0.00 | 0.00 | 0.00 | 100 | 799.0 |
| 20260902062922 | 13 | 40 | 3.2 | 3.2 | 0.00 | 0.00 | 0.00 | 100 | 799.0 |
| 20260902062411 | 13 | 208 | 3.2 | 3.2 | 0.00 | 0.00 | 0.00 | 100 | 799.0 |
| 20260902061350 | 13 | 179 | 3.2 | 3.2 | 0.00 | 0.00 | 0.00 | 100 | 799.0 |
| 20260902060849 | 13 | 80 | 3.2 | 3.2 | 0.00 | 0.00 | 0.00 | 100 | 799.0 |
| 20260902060338 | 13 | 80 | 3.2 | 3.2 | 0.00 | 0.00 | 0.00 | 100 | 799.0 |
| 20260902055827 | 13 | 80 | 3.2 | 3.2 | 0.00 | 0.00 | 0.00 | 100 | 799.0 |
| 20260902055317 | 12 | 37 | 3.2 | 3.2 | 0.00 | 0.00 | 0.00 | 100 | 799.0 |
| 20260902054808 | 12 | 4 | 3.2 | 3.2 | 0.00 | 0.00 | 0.00 | 100 | 799.0 |
| 20260902054304 | 12 | 301 | 3.2 | 3.2 | 0.00 | 0.00 | 0.00 | 100 | 799.0 |
| 20260902053753 | 12 | 45 | 3.2 | 3.2 | 0.00 | 0.00 | 0.00 | 100 | 799.0 |
| 20260902053242 | 12 | 63 | 4.8 | 4.8 | 0.00 | 0.00 | 0.00 | 100 | 799.0 |
| 20260902052731 | 12 | 63 | 4.8 | 4.8 | 0.00 | 0.00 | 0.00 | 100 | 799.0 |
| 20260902052231 | 12 | 49 | 4.8 | 4.8 | 0.00 | 0.00 | 0.00 | 100 | 799.0 |
| 20260902051720 | 12 | 51 | 4.8 | 4.8 | 0.00 | 0.00 | 0.00 | 100 | 799.0 |
| 20260902051209 | 12 | 73 | 4.8 | 4.8 | 0.00 | 0.00 | 0.00 | 100 | 799.0 |
| 20260902050658 | 12 | 88 | 4.8 | 4.8 | 0.00 | 0.00 | 0.00 | 100 | 799.0 |
| 20260902050147 | 12 | 97 | 4.8 | 4.8 | 0.00 | 0.00 | 0.00 | 100 | 799.0 |
| 20260902045643 | 11 | 91 | 4.8 | 4.8 | 0.00 | 0.00 | 0.00 | 100 | 799.0 |
| 20260902045134 | 11 | 149 | 4.8 | 4.8 | 0.00 | 0.00 | 0.00 | 100 | 799.0 |
| 20260902044631 | 11 | 115 | 4.8 | 4.8 | 0.00 | 0.00 | 0.00 | 100 | 799.0 |
| 20260902044119 | 11 | 249 | 4.8 | 4.8 | 0.00 | 0.00 | 0.00 | 100 | 799.0 |
| 20260902043609 | 11 | 179 | 4.8 | 4.8 | 0.00 | 0.00 | 0.00 | 100 | 799.0 |
| 20260902043058 | 11 | 160 | 4.8 | 4.8 | 0.00 | 0.00 | 0.00 | 100 | 799.0 |
| 20260902042547 | 11 | 63 | 4.8 | 4.8 | 0.00 | 0.00 | 0.00 | 100 | 799.0 |
| 20260902042046 | 11 | 63 | 4.8 | 4.8 | 0.00 | 0.00 | 0.00 | 100 | 799.0 |
| 20260902041536 | 11 | 63 | 4.8 | 4.8 | 0.00 | 0.00 | 0.00 | 100 | 799.0 |
| 20260902040513 | 11 | 45 | 4.8 | 4.8 | 0.00 | 0.00 | 0.00 | 100 | 799.0 |
| 20260902040013 | 11 | 45 | 4.8 | 4.8 | 0.00 | 0.00 | 0.00 | 100 | 799.0 |
| 20260902035505 | 11 | 46 | 4.8 | 4.8 | 0.00 | 0.00 | 0.00 | 100 | 799.0 |
| 20260902034950 | 11 | 88 | 4.8 | 4.8 | 0.00 | 0.00 | 0.00 | 100 | 799.0 |
| 20260902034439 | 11 | 214 | 4.8 | 4.8 | 0.00 | 0.00 | 0.00 | 100 | 799.0 |
| 20260902033929 | 11 | 214 | 4.8 | 4.8 | 0.00 | 0.00 | 0.00 | 100 | 799.0 |
| 20260902032917 | 11 | 5 | 4.8 | 4.8 | 0.00 | 0.00 | 0.00 | 100 | 799.0 |
| 20260902032406 | 11 | 40 | 4.8 | 4.8 | 0.00 | 0.00 | 0.00 | 100 | 799.0 |
| 20260902031856 | 11 | 66 | 4.8 | 4.8 | 0.00 | 0.00 | 0.00 | 100 | 799.0 |
| 20260902031355 | 11 | 41 | 4.8 | 4.8 | 0.00 | 0.00 | 0.00 | 100 | 799.0 |
| 20260902030844 | 11 | 130 | 4.8 | 4.8 | 0.00 | 0.00 | 0.00 | 100 | 799.0 |
| 20260902025825 | 11 | 57 | 4.8 | 4.8 | 0.00 | 0.00 | 0.00 | 100 | 799.0 |
| 20260902025321 | 11 | 97 | 4.8 | 4.8 | 0.00 | 0.00 | 0.00 | 100 | 799.0 |
| 20260902024810 | 11 | 97 | 4.8 | 4.8 | 0.00 | 0.00 | 0.00 | 100 | 799.0 |
| 20260902024259 | 11 | 97 | 4.8 | 4.8 | 0.00 | 0.00 | 0.00 | 100 | 799.0 |
| 20260902023748 | 11 | 97 | 4.8 | 4.8 | 0.00 | 0.00 | 0.00 | 100 | 799.0 |
| 20260902023237 | 11 | 108 | 4.8 | 4.8 | 0.00 | 0.00 | 0.00 | 100 | 799.0 |
| 20260902022738 | 11 | 113 | 4.8 | 4.8 | 0.00 | 0.00 | 0.00 | 100 | 799.0 |
| 20260902022226 | 11 | 86 | 4.8 | 4.8 | 0.00 | 0.00 | 0.00 | 100 | 799.0 |
| 20260902021202 | 11 | 94 | 4.8 | 4.8 | 0.00 | 0.00 | 0.00 | 100 | 799.0 |
| 20260902020703 | 12 | 131 | 4.8 | 4.8 | 0.00 | 0.00 | 0.00 | 100 | 799.0 |
| 20260902020155 | 11 | 74 | 4.8 | 4.8 | 0.00 | 0.00 | 0.00 | 100 | 799.0 |
| 20260902015640 | 11 | 56 | 4.8 | 4.8 | 0.00 | 0.00 | 0.00 | 100 | 799.0 |
| 20260902014629 | 11 | 56 | 4.8 | 4.8 | 0.00 | 0.00 | 0.00 | 100 | 799.0 |
| 20260902014118 | 11 | 56 | 4.8 | 4.8 | 0.00 | 0.00 | 0.00 | 100 | 799.0 |
| 20260902013607 | 11 | 56 | 4.8 | 4.8 | 0.00 | 0.00 | 0.00 | 100 | 799.0 |
| 20260902013056 | 11 | 97 | 4.8 | 4.8 | 0.00 | 0.00 | 0.00 | 100 | 799.0 |
| 20260902012545 | 11 | 97 | 4.8 | 4.8 | 0.00 | 0.00 | 0.00 | 100 | 799.0 |
| 20260902012045 | 12 | 97 | 4.8 | 4.8 | 0.00 | 0.00 | 0.00 | 100 | 799.0 |
| 20260902011534 | 12 | 97 | 4.8 | 4.8 | 0.00 | 0.00 | 0.00 | 100 | 799.0 |
| 20260902010514 | 12 | 73 | 4.8 | 4.8 | 0.00 | 0.00 | 0.00 | 100 | 799.0 |
| 20260902010011 | 12 | 33 | 4.8 | 4.8 | 0.00 | 0.00 | 0.00 | 100 | 799.0 |
| 20260902005500 | 12 | 45 | 4.8 | 4.8 | 0.00 | 0.00 | 0.00 | 100 | 799.0 |
| 20260902004949 | 12 | 74 | 4.8 | 4.8 | 0.00 | 0.00 | 0.00 | 100 | 799.0 |
| 20260902004438 | 12 | 182 | 4.8 | 4.8 | 0.00 | 0.00 | 0.00 | 100 | 799.0 |
| 20260902003136 | 12 | 74 | 4.8 | 4.8 | 0.00 | 0.00 | 0.00 | 100 | 799.0 |
| 20260902001927 | 12 | 74 | 4.8 | 4.8 | 0.00 | 0.00 | 0.00 | 100 | 799.0 |
| 20260901235506 | 12 | 63 | 4.8 | 4.8 | 0.00 | 0.00 | 0.00 | 100 | 799.0 |
| 20260901234257 | 12 | 48 | 4.8 | 4.8 | 0.00 | 0.00 | 0.00 | 100 | 799.0 |
| 20260901233048 | 12 | 69 | 4.8 | 4.8 | 0.00 | 0.00 | 0.00 | 100 | 799.0 |
| 20260901231836 | 12 | 208 | 4.8 | 4.8 | 0.00 | 0.00 | 0.00 | 100 | 799.0 |
| 20260901230624 | 12 | 102 | 4.8 | 4.8 | 0.00 | 0.00 | 0.00 | 100 | 799.0 |
| 20260901225416 | 13 | 127 | 4.8 | 4.8 | 0.00 | 0.00 | 0.00 | 100 | 799.0 |
| 20260901224217 | 13 | 102 | 4.8 | 4.8 | 0.00 | 0.00 | 0.00 | 100 | 799.0 |
| 20260901223007 | 13 | 97 | 4.8 | 4.8 | 0.00 | 0.00 | 0.00 | 100 | 799.0 |
| 20260901220545 | 13 | 45 | 4.8 | 4.8 | 0.00 | 0.00 | 0.00 | 100 | 799.0 |
| 20260901215336 | 13 | 56 | 4.8 | 4.8 | 0.00 | 0.00 | 0.00 | 100 | 799.0 |
| 20260901214126 | 13 | 56 | 4.8 | 4.8 | 0.00 | 0.00 | 0.00 | 100 | 799.0 |
| 20260901212915 | 14 | 56 | 4.8 | 4.8 | 0.00 | 0.00 | 0.00 | 100 | 799.0 |
| 20260901211706 | 13 | 56 | 4.8 | 4.8 | 0.00 | 0.00 | 0.00 | 100 | 799.0 |
| 20260901205247 | 14 | 69 | 4.8 | 4.8 | 0.00 | 0.00 | 0.00 | 100 | 799.0 |
| 20260901204036 | 14 | 69 | 4.8 | 4.8 | 0.00 | 0.00 | 0.00 | 100 | 799.0 |